Time,TemperatureF,DewpointF,PressureIn,WindDirection,WindDirectionDegrees,WindSpeedMPH,WindSpeedGustMPH,Humidity,HourlyPrecipIn,Conditions,Clouds,dailyrainin,SolarRadiationWatts/m^2,SoftwareType,DateUTC
2013-02-08 00:02:00,48.0,42.0,-100.00,SSW,192,2.0,7.0,79,0.00,,,0.09,0.000000,,2013-02-08 05:02:00,
2013-02-08 00:32:00,48.0,42.0,-100.00,SW,217,3.0,7.0,80,0.00,,,0.09,0.000000,,2013-02-08 05:32:00,
2013-02-08 00:42:00,48.0,42.0,-100.00,SW,217,3.0,7.0,80,0.00,,,0.09,0.000000,,2013-02-08 05:42:00,
2013-02-08 00:52:00,48.0,42.0,-100.00,SW,217,3.0,7.0,80,0.00,,,0.09,0.000000,,2013-02-08 05:52:00,
2013-02-08 01:02:00,48.0,42.0,-100.00,SW,217,3.0,7.0,80,0.00,,,0.09,0.000000,,2013-02-08 06:02:00,
2013-02-08 01:32:00,47.0,43.0,-100.00,WSW,251,3.0,6.0,86,0.00,,,0.09,0.000000,,2013-02-08 06:32:00,
2013-02-08 01:42:00,47.0,43.0,-100.00,WSW,251,3.0,6.0,86,0.00,,,0.09,0.000000,,2013-02-08 06:42:00,
2013-02-08 01:52:00,47.0,43.0,-100.00,WSW,251,3.0,6.0,86,0.00,,,0.09,0.000000,,2013-02-08 06:52:00,
2013-02-08 02:01:00,47.0,43.0,-100.00,WSW,251,3.0,6.0,86,0.00,,,0.09,0.000000,,2013-02-08 07:01:00,
2013-02-08 02:32:00,46.0,43.0,-100.00,SW,235,3.0,5.0,90,0.00,,,0.09,0.000000,,2013-02-08 07:32:00,
2013-02-08 02:42:00,46.0,43.0,-100.00,SW,235,3.0,5.0,90,0.00,,,0.09,0.000000,,2013-02-08 07:42:00,
2013-02-08 02:52:00,46.0,43.0,-100.00,SW,235,3.0,5.0,90,0.00,,,0.09,0.000000,,2013-02-08 07:52:00,
2013-02-08 03:01:00,46.0,43.0,-100.00,SW,235,3.0,5.0,90,0.00,,,0.09,0.000000,,2013-02-08 08:01:00,
2013-02-08 03:32:00,45.0,43.0,-100.00,North,1,1.0,4.0,93,0.01,,,0.10,0.000000,,2013-02-08 08:32:00,
2013-02-08 03:42:00,45.0,43.0,-100.00,North,1,1.0,4.0,93,0.01,,,0.10,0.000000,,2013-02-08 08:42:00,
2013-02-08 03:52:00,45.0,43.0,-100.00,North,1,1.0,4.0,93,0.01,,,0.10,0.000000,,2013-02-08 08:52:00,
2013-02-08 04:03:00,45.0,43.0,-100.00,North,1,1.0,4.0,93,0.01,,,0.10,0.000000,,2013-02-08 09:03:00,
2013-02-08 04:32:00,44.0,43.0,-100.00,NW,307,0.0,2.0,98,0.00,,,0.10,0.000000,,2013-02-08 09:32:00,
2013-02-08 04:42:00,44.0,43.0,-100.00,NW,307,0.0,2.0,98,0.00,,,0.10,0.000000,,2013-02-08 09:42:00,
2013-02-08 04:52:00,44.0,43.0,-100.00,NW,307,0.0,2.0,98,0.00,,,0.10,0.000000,,2013-02-08 09:52:00,
2013-02-08 05:01:00,44.0,43.0,-100.00,NW,307,0.0,2.0,98,0.00,,,0.10,0.000000,,2013-02-08 10:01:00,
2013-02-08 05:32:00,44.0,43.0,-100.00,East,95,1.0,2.0,98,0.00,,,0.10,0.000000,,2013-02-08 10:32:00,
2013-02-08 05:42:00,44.0,43.0,-100.00,East,95,1.0,2.0,98,0.00,,,0.10,0.000000,,2013-02-08 10:42:00,
2013-02-08 05:52:00,44.0,43.0,-100.00,East,95,1.0,2.0,98,0.00,,,0.10,0.000000,,2013-02-08 10:52:00,
2013-02-08 06:01:00,44.0,43.0,-100.00,East,95,1.0,2.0,98,0.00,,,0.10,0.000000,,2013-02-08 11:01:00,
2013-02-08 06:32:00,44.0,44.0,-100.00,NNE,32,2.0,3.0,99,0.00,,,0.10,0.000000,,2013-02-08 11:32:00,
2013-02-08 06:42:00,44.0,44.0,-100.00,NNE,32,2.0,3.0,99,0.00,,,0.10,0.000000,,2013-02-08 11:42:00,
2013-02-08 06:52:00,44.0,44.0,-100.00,NNE,32,2.0,3.0,99,0.00,,,0.10,0.000000,,2013-02-08 11:52:00,
2013-02-08 07:02:00,44.0,44.0,-100.00,NNE,32,2.0,3.0,99,0.00,,,0.10,0.000000,,2013-02-08 12:02:00,
2013-02-08 07:33:00,43.0,43.0,-100.00,West,262,0.0,2.0,99,0.00,,,0.10,0.000000,,2013-02-08 12:33:00,
2013-02-08 07:42:00,43.0,43.0,-100.00,West,262,0.0,2.0,99,0.00,,,0.10,0.000000,,2013-02-08 12:42:00,
2013-02-08 07:52:00,43.0,43.0,-100.00,West,262,0.0,2.0,99,0.00,,,0.10,0.000000,,2013-02-08 12:52:00,
2013-02-08 08:02:00,43.0,43.0,-100.00,West,262,0.0,2.0,99,0.00,,,0.10,0.000000,,2013-02-08 13:02:00,
2013-02-08 08:32:00,42.0,42.0,-100.00,NNE,13,2.0,4.0,99,0.00,,,0.10,20.000000,,2013-02-08 13:32:00,
2013-02-08 08:43:00,42.0,42.0,-100.00,NNE,13,2.0,4.0,99,0.00,,,0.10,20.000000,,2013-02-08 13:43:00,
2013-02-08 08:52:00,42.0,42.0,-100.00,NNE,13,2.0,4.0,99,0.00,,,0.10,20.000000,,2013-02-08 13:52:00,
2013-02-08 09:02:00,42.0,42.0,-100.00,NNE,13,2.0,4.0,99,0.00,,,0.10,20.000000,,2013-02-08 14:02:00,
2013-02-08 09:32:00,45.0,45.0,-100.00,ENE,57,0.0,2.0,99,0.00,,,0.10,59.000000,,2013-02-08 14:32:00,
2013-02-08 09:42:00,45.0,45.0,-100.00,ENE,57,0.0,2.0,99,0.00,,,0.10,59.000000,,2013-02-08 14:42:00,
2013-02-08 09:52:00,45.0,45.0,-100.00,ENE,57,0.0,2.0,99,0.00,,,0.10,59.000000,,2013-02-08 14:52:00,
2013-02-08 10:02:00,45.0,45.0,-100.00,ENE,57,0.0,2.0,99,0.00,,,0.10,59.000000,,2013-02-08 15:02:00,
2013-02-08 10:32:00,47.0,47.0,-100.00,SSE,168,1.0,2.0,99,0.02,,,0.12,73.000000,,2013-02-08 15:32:00,
2013-02-08 10:42:00,47.0,47.0,-100.00,SSE,168,1.0,2.0,99,0.02,,,0.12,73.000000,,2013-02-08 15:42:00,
2013-02-08 10:52:00,47.0,47.0,-100.00,SSE,168,1.0,2.0,99,0.02,,,0.12,73.000000,,2013-02-08 15:52:00,
2013-02-08 11:02:00,47.0,47.0,-100.00,SSE,168,1.0,2.0,99,0.02,,,0.12,73.000000,,2013-02-08 16:02:00,
2013-02-08 11:32:00,47.0,45.0,-100.00,NE,52,2.0,3.0,94,0.01,,,0.12,93.000000,,2013-02-08 16:32:00,
2013-02-08 11:42:00,47.0,45.0,-100.00,NE,52,2.0,3.0,94,0.01,,,0.12,93.000000,,2013-02-08 16:42:00,
2013-02-08 11:52:00,47.0,45.0,-100.00,NE,52,2.0,3.0,94,0.01,,,0.12,93.000000,,2013-02-08 16:52:00,
2013-02-08 12:04:00,47.0,45.0,-100.00,NE,52,2.0,3.0,94,0.01,,,0.12,93.000000,,2013-02-08 17:04:00,
2013-02-08 12:33:00,48.0,45.0,-100.00,SSW,202,4.0,7.0,91,0.00,,,0.10,91.000000,,2013-02-08 17:33:00,
2013-02-08 12:42:00,48.0,45.0,-100.00,SSW,202,4.0,7.0,91,0.00,,,0.10,91.000000,,2013-02-08 17:42:00,
2013-02-08 12:53:00,48.0,45.0,-100.00,SSW,202,4.0,7.0,91,0.00,,,0.10,91.000000,,2013-02-08 17:53:00,
2013-02-08 13:03:00,48.0,45.0,-100.00,SSW,202,4.0,7.0,91,0.00,,,0.10,91.000000,,2013-02-08 18:03:00,
2013-02-08 13:36:00,49.0,43.0,-100.00,North,11,6.0,14.0,81,0.00,,,0.09,178.000000,,2013-02-08 18:36:00,
2013-02-08 13:44:00,49.0,43.0,-100.00,North,11,6.0,14.0,81,0.00,,,0.09,178.000000,,2013-02-08 18:44:00,
2013-02-08 13:53:00,49.0,43.0,-100.00,North,11,6.0,14.0,81,0.00,,,0.09,178.000000,,2013-02-08 18:53:00,
2013-02-08 14:02:00,49.0,43.0,-100.00,North,11,6.0,14.0,81,0.00,,,0.09,178.000000,,2013-02-08 19:02:00,
2013-02-08 14:33:00,50.0,43.0,-100.00,North,354,7.0,17.0,77,0.00,,,0.07,327.000000,,2013-02-08 19:33:00,
2013-02-08 14:42:00,50.0,43.0,-100.00,North,354,7.0,17.0,77,0.00,,,0.07,327.000000,,2013-02-08 19:42:00,
2013-02-08 14:52:00,50.0,43.0,-100.00,North,354,7.0,17.0,77,0.00,,,0.07,327.000000,,2013-02-08 19:52:00,
2013-02-08 15:02:00,50.0,43.0,-100.00,North,354,7.0,17.0,77,0.00,,,0.07,327.000000,,2013-02-08 20:02:00,
2013-02-08 15:32:00,50.0,43.0,-100.00,NNE,12,8.0,18.0,78,0.00,,,0.05,201.000000,,2013-02-08 20:32:00,
2013-02-08 15:42:00,50.0,43.0,-100.00,NNE,12,8.0,18.0,78,0.00,,,0.05,201.000000,,2013-02-08 20:42:00,
2013-02-08 15:52:00,50.0,43.0,-100.00,NNE,12,8.0,18.0,78,0.00,,,0.05,201.000000,,2013-02-08 20:52:00,
2013-02-08 16:02:00,50.0,43.0,-100.00,NNE,12,8.0,18.0,78,0.00,,,0.05,201.000000,,2013-02-08 21:02:00,
2013-02-08 16:33:00,52.0,38.0,-100.00,NNE,13,8.0,20.0,58,0.00,,,0.05,521.000000,,2013-02-08 21:33:00,
2013-02-08 16:42:00,52.0,38.0,-100.00,NNE,13,8.0,20.0,58,0.00,,,0.05,521.000000,,2013-02-08 21:42:00,
2013-02-08 16:52:00,52.0,38.0,-100.00,NNE,13,8.0,20.0,58,0.00,,,0.05,521.000000,,2013-02-08 21:52:00,
2013-02-08 17:02:00,52.0,38.0,-100.00,NNE,13,8.0,20.0,58,0.00,,,0.05,521.000000,,2013-02-08 22:02:00,
2013-02-08 17:32:00,52.0,34.0,-100.00,NW,309,6.0,17.0,50,0.00,,,0.04,407.000000,,2013-02-08 22:32:00,
2013-02-08 17:42:00,52.0,34.0,-100.00,NW,309,6.0,17.0,50,0.00,,,0.04,407.000000,,2013-02-08 22:42:00,
2013-02-08 17:52:00,52.0,34.0,-100.00,NW,309,6.0,17.0,50,0.00,,,0.04,407.000000,,2013-02-08 22:52:00,
2013-02-08 18:02:00,52.0,34.0,-100.00,NW,309,6.0,17.0,50,0.00,,,0.04,407.000000,,2013-02-08 23:02:00,
2013-02-08 18:32:00,47.0,31.0,-100.00,NNE,22,6.0,20.0,54,0.00,,,0.04,116.000000,,2013-02-08 23:32:00,
2013-02-08 18:42:00,47.0,31.0,-100.00,NNE,22,6.0,20.0,54,0.00,,,0.04,116.000000,,2013-02-08 23:42:00,
2013-02-08 18:52:00,47.0,31.0,-100.00,NNE,22,6.0,20.0,54,0.00,,,0.04,116.000000,,2013-02-08 23:52:00,
2013-02-08 19:02:00,47.0,31.0,-100.00,NNE,22,6.0,20.0,54,0.00,,,0.04,116.000000,,2013-02-09 00:02:00,
2013-02-08 19:32:00,44.0,32.0,-100.00,NNW,335,6.0,21.0,63,0.00,,,0.04,2.000000,,2013-02-09 00:32:00,
2013-02-08 19:42:00,44.0,32.0,-100.00,NNW,335,6.0,21.0,63,0.00,,,0.04,2.000000,,2013-02-09 00:42:00,
2013-02-08 19:52:00,44.0,32.0,-100.00,NNW,335,6.0,21.0,63,0.00,,,0.04,2.000000,,2013-02-09 00:52:00,
2013-02-08 20:02:00,44.0,32.0,-100.00,NNW,335,6.0,21.0,63,0.00,,,0.04,2.000000,,2013-02-09 01:02:00,
2013-02-08 20:32:00,40.0,30.0,-100.00,NNE,26,7.0,20.0,68,0.00,,,-99.99,0.000000,,2013-02-09 01:32:00,
2013-02-08 20:42:00,40.0,30.0,-100.00,NNE,26,7.0,20.0,68,0.00,,,-99.99,0.000000,,2013-02-09 01:42:00,
2013-02-08 20:52:00,40.0,30.0,-100.00,NNE,26,7.0,20.0,68,0.00,,,-99.99,0.000000,,2013-02-09 01:52:00,
2013-02-08 21:01:00,40.0,30.0,-100.00,NNE,26,7.0,20.0,68,0.00,,,-99.99,0.000000,,2013-02-09 02:01:00,
2013-02-08 21:32:00,38.0,29.0,-100.00,NNE,17,10.0,24.0,70,0.00,,,0.04,0.000000,,2013-02-09 02:32:00,
2013-02-08 21:42:00,38.0,29.0,-100.00,NNE,17,10.0,24.0,70,0.00,,,0.04,0.000000,,2013-02-09 02:42:00,
2013-02-08 21:53:00,38.0,29.0,-100.00,NNE,17,10.0,24.0,70,0.00,,,0.04,0.000000,,2013-02-09 02:53:00,
2013-02-08 22:02:00,38.0,29.0,-100.00,NNE,17,10.0,24.0,70,0.00,,,0.04,0.000000,,2013-02-09 03:02:00,
2013-02-08 22:32:00,37.0,28.0,-100.00,NNE,17,8.0,26.0,71,0.00,,,0.04,0.000000,,2013-02-09 03:32:00,
2013-02-08 22:42:00,37.0,28.0,-100.00,NNE,17,8.0,26.0,71,0.00,,,0.04,0.000000,,2013-02-09 03:42:00,
2013-02-08 22:53:00,37.0,28.0,-100.00,NNE,17,8.0,26.0,71,0.00,,,0.04,0.000000,,2013-02-09 03:53:00,
2013-02-08 23:03:00,37.0,28.0,-100.00,NNE,17,8.0,26.0,71,0.00,,,0.04,0.000000,,2013-02-09 04:03:00,
2013-02-08 23:32:00,37.0,28.0,-100.00,NNE,13,9.0,27.0,71,0.00,,,0.04,0.000000,,2013-02-09 04:32:00,
2013-02-08 23:42:00,37.0,28.0,-100.00,NNE,13,9.0,27.0,71,0.00,,,0.04,0.000000,,2013-02-09 04:42:00,
2013-02-08 23:52:00,37.0,28.0,-100.00,NNE,13,9.0,27.0,71,0.00,,,0.04,0.000000,,2013-02-09 04:52:00,